Location: A�t �Alizem
(31.2076°N, 8.7872°W)
Time: 16:19:40
(UTC+00:00)

AQUARIUS - Pass Details

Date: 27 November 2020
Orbit: 651 x 652 km, 98.0° (Epoch: 26 January)

Event Time Altitude Azimuth Distance (km) Brightness Sun altitude
Rises 18:11:56 0° 166° (SSE) 2,955 7.6 -8.6°
Reaches altitude 10° 18:14:08 10° 166° (SSE) 2,048 6.8 -9.1°
Maximum altitude 18:18:37 87° 81° (E) 657 4.1 -10.0°
Drops below altitude 10° 18:23:07 10° 349° (NNW) 2,061 6.7 -10.9°
Sets 18:25:20 0° 349° (N) 2,975 7.5 -11.3°
